CW8935 Weather Reports


Display with metric or nautical units.
time (UTC)temp
F
wind
direction
speed
MPH
gust
MPH
rain 1hr
in
rain 24hr
in
rain mn
in
humidity
%
barometer
mb
20210616065710 63 89 0.0 0.0 0.00 0.00 0.00 62 1013.5
20210616065210 63 89 0.0 0.0 0.00 0.00 0.00 61 1013.4
20210616064710 64 89 0.0 0.0 0.00 0.00 0.00 61 1013.4
20210616064210 64 89 0.0 0.0 0.00 0.00 0.00 61 1013.5
20210616063709 64 89 0.0 0.0 0.00 0.00 0.00 61 1013.5
20210616063208 64 89 0.0 0.0 0.00 0.00 0.00 60 1013.5
20210616062707 65 89 0.0 0.0 0.00 0.00 0.00 60 1013.6
20210616062210 65 89 0.0 0.0 0.00 0.00 0.00 60 1013.6
20210616061708 65 89 0.0 0.0 0.00 0.00 0.00 60 1013.6
20210616061205 65 89 0.0 0.0 0.00 0.00 0.00 60 1013.7
20210616060703 65 89 0.0 0.0 0.00 0.00 0.00 60 1013.7
20210616060203 66 89 0.0 0.0 0.00 0.00 0.00 60 1013.8
20210616055703 66 89 0.0 0.0 0.00 0.00 0.00 59 1013.9
20210616055204 66 89 0.0 0.0 0.00 0.00 0.00 59 1013.9
20210616054703 66 89 0.0 0.0 0.00 0.00 0.00 59 1013.9
20210616054204 67 89 0.0 0.0 0.00 0.00 0.00 60 1013.9
20210616053703 67 89 0.0 0.0 0.00 0.00 0.00 59 1014.0
20210616053203 67 89 0.0 0.0 0.00 0.00 0.00 58 1014.0
20210616052704 67 89 0.0 0.0 0.00 0.00 0.00 58 1014.0
20210616052204 68 89 0.0 0.0 0.00 0.00 0.00 58 1013.9
20210616051703 68 89 0.0 0.0 0.00 0.00 0.00 57 1013.9
20210616051203 68 89 0.0 0.0 0.00 0.00 0.00 56 1013.9
20210616050703 69 89 0.0 0.0 0.00 0.00 0.00 57 1013.9
20210616050204 69 89 0.0 0.0 0.00 0.00 0.00 56 1013.9
20210616045703 69 89 0.0 0.0 0.00 0.00 0.00 56 1013.9
20210616045204 70 89 0.0 0.0 0.00 0.00 0.00 55 1013.9
20210616044703 70 89 0.0 0.0 0.00 0.00 0.00 54 1013.9
20210616044203 70 89 0.0 0.0 0.00 0.00 0.00 52 1013.9
20210616043703 71 89 0.0 0.0 0.00 0.00 0.00 52 1013.8
20210616043204 71 89 0.0 0.0 0.00 0.00 0.00 52 1013.7
20210616042704 71 89 0.0 0.0 0.00 0.00 0.00 52 1013.7
20210616042204 72 89 0.0 1.0 0.00 0.00 0.00 51 1013.8
20210616041703 72 89 0.0 1.0 0.00 0.00 0.00 50 1013.7
20210616041204 72 89 0.0 0.0 0.00 0.00 0.00 48 1013.8
20210616040704 73 89 0.0 1.0 0.00 0.00 0.00 47 1013.7
20210616040202 73 89 0.0 2.0 0.00 0.00 0.00 46 1013.7
20210616035659 73 89 0.0 3.0 0.00 0.00 0.00 45 1013.6
20210616035159 74 89 0.0 3.0 0.00 0.00 0.00 43 1013.5
20210616034659 74 88 0.0 3.0 0.00 0.00 0.00 43 1013.5
20210616034200 74 88 0.0 3.0 0.00 0.00 0.00 42 1013.4
20210616033700 75 88 0.0 3.0 0.00 0.00 0.00 41 1013.4
20210616033200 75 88 1.0 3.0 0.00 0.00 0.00 40 1013.5
20210616032659 75 85 0.0 3.0 0.00 0.00 0.00 38 1013.4
20210616032159 75 85 1.0 6.0 0.00 0.00 0.00 37 1013.4
20210616031700 76 85 1.0 6.0 0.00 0.00 0.00 36 1013.4
20210616031200 76 90 1.0 3.0 0.00 0.00 0.00 36 1013.3
20210616030659 76 93 2.0 6.0 0.00 0.00 0.00 36 1013.4
20210616030159 76 84 2.0 6.0 0.00 0.00 0.00 36 1013.3
20210616025657 77 59 2.0 6.0 0.00 0.00 0.00 35 1013.3
20210616025157 77 59 2.0 8.0 0.00 0.00 0.00 35 1013.3
20210616024658 77 128 3.0 8.0 0.00 0.00 0.00 34 1013.2
20210616024157 78 71 3.0 7.0 0.00 0.00 0.00 34 1013.3
20210616023655 78 111 3.0 7.0 0.00 0.00 0.00 33 1013.3
20210616023155 78 48 3.0 8.0 0.00 0.00 0.00 32 1013.3
20210616022656 78 51 3.0 8.0 0.00 0.00 0.00 32 1013.3
20210616022151 79 41 3.0 12.0 0.00 0.00 0.00 32 1013.4
20210616021651 79 40 3.0 12.0 0.00 0.00 0.00 32 1013.3
20210616021152 79 84 4.0 11.0 0.00 0.00 0.00 32 1013.3
20210616020652 80 49 4.0 11.0 0.00 0.00 0.00 32 1013.3
20210616020151 80 15 3.0 7.0 0.00 0.00 0.00 33 1013.3
20210616015651 80 43 2.0 7.0 0.00 0.00 0.00 34 1013.2
20210616015150 80 23 2.0 9.0 0.00 0.00 0.00 34 1013.2
20210616014649 81 74 2.0 9.0 0.00 0.00 0.00 33 1013.2
20210616014149 81 90 2.0 8.0 0.00 0.00 0.00 33 1013.2
20210616013649 82 130 2.0 8.0 0.00 0.00 0.00 32 1013.3
20210616013147 82 38 3.0 8.0 0.00 0.00 0.00 31 1013.3
20210616012647 82 72 2.0 7.0 0.00 0.00 0.00 31 1013.4
20210616012148 82 141 2.0 8.0 0.00 0.00 0.00 31 1013.3
20210616011647 83 131 2.0 8.0 0.00 0.00 0.00 31 1013.4
20210616011147 83 159 2.0 9.0 0.00 0.00 0.00 30 1013.5
20210616010647 83 69 3.0 9.0 0.00 0.00 0.00 29 1013.5
20210616010148 84 65 3.0 9.0 0.00 0.00 0.00 28 1013.5
20210616005647 84 91 2.0 9.0 0.00 0.00 0.00 28 1013.6
20210616005147 85 110 3.0 9.0 0.00 0.00 0.00 28 1013.7
20210616004646 85 47 3.0 10.0 0.00 0.00 0.00 26 1013.7
20210616004145 86 55 3.0 10.0 0.00 0.00 0.00 27 1013.6
20210616003645 86 34 2.0 10.0 0.00 0.00 0.00 28 1013.7
20210616003145 87 57 2.0 10.0 0.00 0.00 0.00 27 1013.7
20210616002644 87 101 3.0 10.0 0.00 0.00 0.00 27 1013.7
20210616002145 87 71 3.0 9.0 0.00 0.00 0.00 26 1013.8
20210616001645 88 113 3.0 10.0 0.00 0.00 0.00 26 1013.7
20210616001145 88 82 3.0 10.0 0.00 0.00 0.00 27 1013.7
20210616000645 88 130 3.0 8.0 0.00 0.00 0.00 26 1013.8
20210616000145 89 113 3.0 11.0 0.00 0.00 0.00 26 1013.8
20210615235644 89 64 3.0 11.0 0.00 0.00 0.00 24 1013.7
20210615235143 89 53 3.0 8.0 0.00 0.00 0.00 25 1013.9
20210615234643 90 34 3.0 8.0 0.00 0.00 0.00 26 1013.8
20210615234143 90 58 3.0 9.0 0.00 0.00 0.00 26 1013.9
20210615233643 90 134 3.0 9.0 0.00 0.00 0.00 26 1013.9
20210615233143 90 81 3.0 7.0 0.00 0.00 0.00 26 1013.9
20210615232643 90 56 3.0 9.0 0.00 0.00 0.00 25 1013.9
20210615232143 90 66 3.0 9.0 0.00 0.00 0.00 24 1014.0
20210615231643 90 61 2.0 8.0 0.00 0.00 0.00 24 1014.0
20210615231143 90 69 2.0 9.0 0.00 0.00 0.00 23 1014.2
20210615230641 90 42 3.0 9.0 0.00 0.00 0.00 24 1014.2
20210615230141 91 170 3.0 12.0 0.00 0.00 0.00 24 1014.3
20210615225640 91 17 4.0 12.0 0.00 0.00 0.00 24 1014.4
20210615225141 91 46 4.0 10.0 0.00 0.00 0.00 24 1014.5
20210615224641 91 37 3.0 9.0 0.00 0.00 0.00 24 1014.5
20210615224141 91 67 3.0 10.0 0.00 0.00 0.00 24 1014.6
20210615223640 90 52 3.0 10.0 0.00 0.00 0.00 24 1014.6
20210615223141 90 30 3.0 9.0 0.00 0.00 0.00 26 1014.6
20210615222641 90 64 3.0 8.0 0.00 0.00 0.00 24 1014.6
20210615222141 90 18 3.0 8.0 0.00 0.00 0.00 26 1014.7
20210615221643 90 159 3.0 9.0 0.00 0.00 0.00 26 1014.7
20210615221144 90 40 3.0 10.0 0.00 0.00 0.00 25 1014.8
20210615220641 90 71 4.0 10.0 0.00 0.00 0.00 25 1015.0
20210615220141 89 51 3.0 9.0 0.00 0.00 0.00 26 1015.1
20210615215641 89 119 3.0 8.0 0.00 0.00 0.00 25 1015.2
20210615215140 89 92 3.0 8.0 0.00 0.00 0.00 26 1015.1
20210615214641 89 105 3.0 8.0 0.00 0.00 0.00 28 1015.2
20210615214141 88 149 3.0 11.0 0.00 0.00 0.00 28 1015.3
20210615213640 88 40 2.0 11.0 0.00 0.00 0.00 27 1015.3
20210615213141 88 63 2.0 7.0 0.00 0.00 0.00 27 1015.3
20210615212641 87 123 2.0 6.0 0.00 0.00 0.00 27 1015.4
20210615212141 87 9 3.0 9.0 0.00 0.00 0.00 26 1015.5
20210615211641 87 290 2.0 9.0 0.00 0.00 0.00 27 1015.4
20210615211139 86 57 2.0 6.0 0.00 0.00 0.00 27 1015.5
20210615210637 86 49 2.0 8.0 0.00 0.00 0.00 27 1015.5
20210615210137 85 150 2.0 8.0 0.00 0.00 0.00 29 1015.6
20210615205637 85 86 3.0 9.0 0.00 0.00 0.00 27 1015.7
20210615205137 85 96 3.0 9.0 0.00 0.00 0.00 27 1015.7
20210615204637 84 49 3.0 8.0 0.00 0.00 0.00 28 1015.7
20210615204137 84 76 3.0 8.0 0.00 0.00 0.00 27 1015.8
20210615203637 83 120 3.0 8.0 0.00 0.00 0.00 29 1015.8
20210615203137 82 51 3.0 8.0 0.00 0.00 0.00 28 1016.0
20210615202634 82 45 3.0 8.0 0.00 0.00 0.00 30 1016.0
20210615202134 81 44 3.0 8.0 0.00 0.00 0.00 30 1016.1
20210615201634 81 71 3.0 9.0 0.00 0.00 0.00 35 1016.1
20210615201135 80 81 3.0 11.0 0.00 0.00 0.00 35 1016.1
20210615200635 80 340 4.0 11.0 0.00 0.00 0.00 35 1016.1
20210615200134 80 15 4.0 10.0 0.00 0.00 0.00 38 1016.2
20210615195633 79 50 4.0 10.0 0.00 0.00 0.00 38 1016.3
20210615195133 79 340 4.0 9.0 0.00 0.00 0.00 38 1016.3
20210615194632 78 39 3.0 9.0 0.00 0.00 0.00 40 1016.4
20210615194133 78 49 3.0 8.0 0.00 0.00 0.00 41 1016.6
20210615193632 78 138 3.0 10.0 0.00 0.00 0.00 43 1016.7
20210615193132 77 128 3.0 10.0 0.00 0.00 0.00 44 1016.8
20210615192632 76 90 3.0 9.0 0.00 0.00 0.00 43 1016.8
20210615192132 76 74 3.0 10.0 0.00 0.00 0.00 42 1016.8
20210615191632 76 63 3.0 10.0 0.00 0.00 0.00 42 1016.8
20210615191130 75 105 3.0 10.0 0.00 0.00 0.00 41 1016.8
20210615190630 75 34 3.0 12.0 0.00 0.00 0.00 39 1016.7
20210615190130 74 74 3.0 12.0 0.00 0.00 0.00 39 1016.8
20210615185630 74 92 3.0 9.0 0.00 0.00 0.00 44 1016.8
20210615185131 74 50 4.0 9.0 0.00 0.00 0.00 41 1016.8
20210615184630 73 75 4.0 9.0 0.00 0.00 0.00 42 1016.7
20210615184128 73 66 3.0 10.0 0.00 0.00 0.00 44 1016.7
20210615183628 72 5 4.0 10.0 0.00 0.00 0.00 43 1016.7
20210615183129 72 60 3.0 10.0 0.00 0.00 0.00 44 1016.7
20210615182626 71 75 3.0 10.0 0.00 0.00 0.00 46 1016.7
20210615182127 71 73 3.0 8.0 0.00 0.00 0.00 49 1016.7
20210615181626 70 78 3.0 9.0 0.00 0.00 0.00 51 1016.8
20210615181126 70 117 2.0 9.0 0.00 0.00 0.00 50 1016.9
20210615180627 69 17 3.0 9.0 0.00 0.00 0.00 54 1016.9
20210615180127 69 146 3.0 9.0 0.00 0.00 0.00 53 1016.9
20210615175626 68 96 2.0 7.0 0.00 0.00 0.00 55 1016.9
20210615175129 68 111 2.0 7.0 0.00 0.00 0.00 56 1016.7
20210615174627 67 48 2.0 8.0 0.00 0.00 0.00 57 1016.8
20210615174127 67 36 2.0 8.0 0.00 0.00 0.00 58 1016.8
20210615173627 66 340 2.0 8.0 0.00 0.00 0.00 59 1016.8
20210615173127 66 19 2.0 9.0 0.00 0.00 0.00 60 1016.8
20210615172627 65 40 2.0 9.0 0.00 0.00 0.00 63 1016.8
20210615172126 65 64 2.0 5.0 0.00 0.00 0.00 63 1016.8
20210615171625 65 17 2.0 6.0 0.00 0.00 0.00 65 1016.8
20210615171125 64 5 2.0 6.0 0.00 0.00 0.00 65 1016.8
20210615170625 64 55 1.0 5.0 0.00 0.00 0.00 66 1016.9
20210615170124 63 83 2.0 6.0 0.00 0.00 0.00 66 1016.9
20210615165624 63 40 1.0 6.0 0.00 0.00 0.00 68 1016.9
20210615165125 62 40 1.0 5.0 0.00 0.00 0.00 69 1017.0
20210615164624 62 128 2.0 6.0 0.00 0.00 0.00 70 1017.1
20210615164124 61 125 2.0 6.0 0.00 0.00 0.00 71 1017.1
20210615163624 61 121 2.0 6.0 0.00 0.00 0.00 72 1017.2
20210615163122 60 50 2.0 6.0 0.00 0.00 0.00 74 1017.3
20210615162622 60 124 2.0 5.0 0.00 0.00 0.00 77 1017.3
20210615162122 59 34 2.0 6.0 0.00 0.00 0.00 79 1017.3
20210615161622 59 53 2.0 6.0 0.00 0.00 0.00 81 1017.3
20210615161122 58 57 1.0 5.0 0.00 0.00 0.00 82 1017.2
20210615160623 58 43 1.0 5.0 0.00 0.00 0.00 83 1017.1
20210615160122 57 155 1.0 5.0 0.00 0.00 0.00 84 1017.0
20210615155622 57 147 2.0 5.0 0.00 0.00 0.00 85 1017.0
20210615155123 56 131 1.0 5.0 0.00 0.00 0.00 86 1017.0
20210615154621 56 76 1.0 4.0 0.00 0.00 0.00 87 1017.1
20210615154120 56 76 1.0 3.0 0.00 0.00 0.00 88 1017.0
20210615153622 55 76 1.0 5.0 0.00 0.00 0.00 88 1017.2
20210615153120 55 76 1.0 5.0 0.00 0.00 0.00 88 1017.2
20210615152620 55 76 1.0 2.0 0.00 0.00 0.00 89 1017.3
20210615152120 54 76 1.0 3.0 0.00 0.00 0.00 89 1017.3
20210615151620 54 76 1.0 3.0 0.00 0.00 0.00 89 1017.2
20210615151120 54 76 0.0 3.0 0.00 0.00 0.00 89 1017.2
20210615150620 53 76 0.0 2.0 0.00 0.00 0.00 89 1017.2
20210615150120 53 76 0.0 2.0 0.00 0.00 0.00 88 1017.3
20210615145619 53 76 0.0 2.0 0.00 0.00 0.00 88 1017.2
20210615145118 52 76 0.0 2.0 0.00 0.00 0.00 88 1017.2
20210615144618 52 76 0.0 1.0 0.00 0.00 0.00 87 1017.2
20210615144118 51 76 0.0 1.0 0.00 0.00 0.00 87 1017.2
20210615143622 51 76 0.0 1.0 0.00 0.00 0.00 86 1017.2
20210615143618 51 76 0.0 1.0 0.00 0.00 0.00 86 1017.2
20210615142618 51 76 0.0 1.0 0.00 0.00 0.00 85 1017.1
20210615142117 50 76 0.0 0.0 0.00 0.00 0.00 84 1017.1
20210615141618 50 76 0.0 0.0 0.00 0.00 0.00 83 1017.0
20210615141120 50 76 0.0 0.0 0.00 0.00 0.00 82 1017.0
20210615140618 50 76 0.0 0.0 0.00 0.00 0.00 81 1017.0
20210615140116 50 76 0.0 0.0 0.00 0.00 0.00 81 1017.0
20210615135616 50 76 0.0 0.0 0.00 0.00 0.00 80 1017.1
20210615135116 50 76 0.0 0.0 0.00 0.00 0.00 79 1017.0
20210615134613 50 76 0.0 0.0 0.00 0.00 0.00 79 1017.0
20210615134114 50 76 0.0 0.0 0.00 0.00 0.00 79 1016.9
20210615133613 50 76 0.0 0.0 0.00 0.00 0.00 80 1017.0
20210615133113 50 76 0.0 0.0 0.00 0.00 0.00 80 1017.0
20210615132613 50 76 0.0 0.0 0.00 0.00 0.00 80 1017.0
20210615132114 50 76 0.0 0.0 0.00 0.00 0.00 80 1016.9
20210615131613 50 76 0.0 0.0 0.00 0.00 0.00 80 1016.9
20210615131114 50 76 0.0 0.0 0.00 0.00 0.00 80 1016.9
20210615130614 50 76 0.0 0.0 0.00 0.00 0.00 80 1016.9
20210615130113 50 76 0.0 0.0 0.00 0.00 0.00 80 1016.9
20210615125613 50 76 0.0 0.0 0.00 0.00 0.00 80 1016.8
20210615125110 51 76 0.0 0.0 0.00 0.00 0.00 80 1016.7
20210615124611 51 76 0.0 0.0 0.00 0.00 0.00 79 1016.7
20210615124107 51 76 0.0 0.0 0.00 0.00 0.00 79 1016.7
20210615123609 51 76 0.0 0.0 0.00 0.00 0.00 79 1016.7
20210615123107 51 76 0.0 0.0 0.00 0.00 0.00 79 1016.7
20210615122608 51 76 0.0 0.0 0.00 0.00 0.00 79 1016.6
20210615122108 51 76 0.0 0.0 0.00 0.00 0.00 79 1016.7
20210615121607 51 76 0.0 0.0 0.00 0.00 0.00 79 1016.6
20210615121107 51 76 0.0 0.0 0.00 0.00 0.00 79 1016.6
20210615120607 51 76 0.0 0.0 0.00 0.00 0.00 78 1016.5
20210615120107 52 76 0.0 0.0 0.00 0.00 0.00 78 1016.4
20210615115607 52 76 0.0 0.0 0.00 0.00 0.00 78 1016.3
20210615115107 52 76 0.0 0.0 0.00 0.00 0.00 78 1016.3
20210615114607 52 76 0.0 0.0 0.00 0.00 0.00 78 1016.3
20210615114108 52 76 0.0 0.0 0.00 0.00 0.00 78 1016.3
20210615113607 52 76 0.0 0.0 0.00 0.00 0.00 77 1016.4
20210615113107 52 76 0.0 0.0 0.00 0.00 0.00 77 1016.4
20210615112608 52 76 0.0 0.0 0.00 0.00 0.00 77 1016.2
20210615112108 53 76 0.0 0.0 0.00 0.00 0.00 77 1016.3
20210615111607 53 76 0.0 0.0 0.00 0.00 0.00 76 1016.2
20210615111108 53 76 0.0 0.0 0.00 0.00 0.00 76 1016.2
20210615110607 53 76 0.0 0.0 0.00 0.00 0.00 76 1016.1
20210615110107 53 76 0.0 0.0 0.00 0.00 0.00 76 1016.1
20210615105607 53 76 0.0 0.0 0.00 0.00 0.00 76 1016.1
20210615105107 53 76 0.0 0.0 0.00 0.00 0.00 76 1016.0
20210615104606 53 76 0.0 0.0 0.00 0.00 0.00 76 1016.0
20210615104106 53 76 0.0 0.0 0.00 0.00 0.00 75 1016.0
20210615103605 54 76 0.0 0.0 0.00 0.00 0.00 75 1015.9
20210615103106 54 76 0.0 0.0 0.00 0.00 0.00 75 1015.9
20210615102603 54 76 0.0 0.0 0.00 0.00 0.00 75 1015.9
20210615102103 54 76 0.0 0.0 0.00 0.00 0.00 75 1015.8
20210615101603 54 76 0.0 0.0 0.00 0.00 0.00 75 1015.8
20210615101102 54 76 0.0 0.0 0.00 0.00 0.00 75 1015.7
20210615100601 54 76 0.0 0.0 0.00 0.00 0.00 75 1015.7
20210615100102 55 76 0.0 0.0 0.00 0.00 0.00 74 1015.7
20210615095601 55 76 0.0 0.0 0.00 0.00 0.00 74 1015.7
20210615095102 55 76 0.0 0.0 0.00 0.00 0.00 74 1015.7
20210615094601 55 76 0.0 0.0 0.00 0.00 0.00 73 1015.7
20210615094102 55 76 0.0 0.0 0.00 0.00 0.00 73 1015.6
20210615093601 55 76 0.0 0.0 0.00 0.00 0.00 73 1015.6
20210615093102 55 76 0.0 0.0 0.00 0.00 0.00 74 1015.6
20210615092605 56 76 0.0 0.0 0.00 0.00 0.00 73 1015.6
20210615092101 56 76 0.0 0.0 0.00 0.00 0.00 73 1015.6
20210615091602 56 76 0.0 0.0 0.00 0.00 0.00 73 1015.6
20210615091101 56 76 0.0 0.0 0.00 0.00 0.00 73 1015.6
20210615090601 56 76 0.0 0.0 0.00 0.00 0.00 72 1015.6
20210615090101 56 76 0.0 0.0 0.00 0.00 0.00 72 1015.7
20210615085601 57 76 0.0 0.0 0.00 0.00 0.00 72 1015.7
20210615085059 57 76 0.0 0.0 0.00 0.00 0.00 71 1015.8
20210615084559 57 76 0.0 0.0 0.00 0.00 0.00 71 1015.7
20210615084058 57 76 0.0 0.0 0.00 0.00 0.00 71 1015.7
20210615083558 57 76 0.0 0.0 0.00 0.00 0.00 71 1015.7
20210615083057 57 76 0.0 0.0 0.00 0.00 0.00 71 1015.7
20210615082558 57 76 0.0 1.0 0.00 0.00 0.00 71 1015.7
20210615082058 58 76 0.0 1.0 0.00 0.00 0.00 71 1015.7
20210615081557 58 76 0.0 1.0 0.00 0.00 0.00 70 1015.6
20210615081057 58 76 0.0 1.0 0.00 0.00 0.00 70 1015.7
20210615080557 58 76 0.0 0.0 0.00 0.00 0.00 69 1015.6
20210615080057 58 76 0.0 0.0 0.00 0.00 0.00 69 1015.7
20210615075557 58 76 0.0 0.0 0.00 0.00 0.00 69 1015.7
20210615075059 58 76 0.0 1.0 0.00 0.00 0.00 69 1015.6
20210615074555 59 76 0.0 1.0 0.00 0.00 0.00 68 1015.7
20210615074055 59 76 0.0 0.0 0.00 0.00 0.00 68 1015.7
20210615073555 59 76 0.0 0.0 0.00 0.00 0.00 68 1015.7
20210615073055 59 76 0.0 0.0 0.00 0.00 0.00 68 1015.7
20210615072555 60 76 0.0 0.0 0.00 0.00 0.00 67 1015.7
20210615072056 60 76 0.0 0.0 0.00 0.00 0.00 68 1015.6
20210615071555 60 76 0.0 0.0 0.00 0.00 0.00 68 1015.6
20210615071055 60 76 0.0 0.0 0.00 0.00 0.00 68 1015.7
20210615070554 60 76 0.0 0.0 0.00 0.00 0.00 68 1015.7
20210615070054 60 76 0.0 0.0 0.00 0.00 0.00 68 1015.6